Loisir ou Compétition : Rejoignez un Club de la Fédération

Résultats

GP DU MARCELLY

SOMMAND

FS Hommes

Jury de Compétition

Délégué Technique :
PERRILLAT BOTONNET JOEL (MB)
D.T. Adjoint :
 
Dir. Epreuve :
BOIVIIN SICART JEREMY (MB)

Caractéristiques de la Piste

Piste :
le FARQUET
Distance :
3 km
Point Haut :
 
Point Bas :
52 m
Montée Tot. :
95 m
Montée Max. :
40 m
Homologation :
 

Pénalité Appliquée :
 
Coefficient :
 

Catégorie :
U14
Style :
C
Clt Dos Clt/Cat Code An Nom Prénom Com Club Temps Ecart Points
Classés
1 126 1/U14 FFS2686663 2005 PERRILLAT BOITEUX ANTHONY MB SC GD BORNAN 11:13.9 00:00.0
2 139 2/U14 FFS2670259 2004 BLANCHARD TITOUAN MB CS LA CLUSAZ 11:16.7 00:02.8
3 140 3/U14 FFS2650224 2004 LAUSENAZ ANTHONY MB CHABLAIS NOR 11:21.5 00:07.6
4 135 4/U14 FFS2661783 2004 JOUANNAUD LIONEL MB CS CHAMONIX 11:24.5 00:10.6
5 138 5/U14 FFS2682762 2004 CALANDRY RAPHAEL MB DRAGONS ANNY 11:40.7 00:26.8
6 133 6/U14 FFS2681320 2004 LEBARD JAN MB DRAGONS ANNY 11:42.1 00:28.2
7 125 7/U14 FFS2682178 2004 BIOLLAZ THOMAS MB PRAZ LYS-SOM 11:45.9 00:32.0
8 136 8/U14 FFS2670262 2004 MICHEL JULIEN MB CS LA CLUSAZ 11:47.8 00:33.9
9 137 9/U14 FFS2681664 2004 PERROUD DORIAN MB SCNP ROCHOIS 11:50.4 00:36.5
10 108 10/U14 FFS2678952 2004 FAVRE BONVIN TITOUAN MB SC GD BORNAN 11:52.0 00:38.1
11 123 11/U14 FFS2686681 2005 DELOCHE LINO MB SC GD BORNAN 11:59.4 00:45.5
12 132 12/U14 FFS2686938 2005 VALLEIX JORIS MB SCNP ROCHOIS 12:05.4 00:51.5
13 112 13/U14 FFS2681260 2004 BOEHLER DORIAN MB LES GETS S.C 12:08.4 00:54.5
14 118 14/U14 FFS2681663 2004 LEVET GASTON MB SCNP ROCHOIS 12:09.4 00:55.5
15 121 15/U14 FFS2682024 2004 MILLAN SYLVAIN MB VILLARD/BOEG 12:10.8 00:56.9
16 130 16/U14 FFS2664692 2004 GROS MICHELE MB SC CONTAMINE 12:13.9 01:00.0
17 134 17/U14 FFS2691994 2004 BELLE CLOT SAMUEL MB SCNP ROCHOIS 12:14.5 01:00.6
18 131 18/U14 FFS2670261 2004 FAVRE REGUILLON MATHELYO MB CS LA CLUSAZ 12:17.0 01:03.1
19 129 19/U14 FFS2682010 2004 BONAVENT THOMAS MB SC D'AGY 12:21.2 01:07.3
20 127 20/U14 FFS2662962 2004 PANISSET SIMON MB SC GD BORNAN 12:26.3 01:12.4
21 128 21/U14 FFS2686532 2004 BERGER HUGO MB DRAGONS ANNY 12:26.4 01:12.5
22 104 22/U14 FFS2673756 2005 PEYRON ARTHUR MB CS CHAMONIX 12:29.2 01:15.3
23 61 23/U14 FFS2676910 2005 CLAVEL SIMON MB CS LA CLUSAZ 12:31.9 01:18.0
24 113 24/U14 FFS2681588 2004 GENTET RONAN MB CS ARGENTIER 12:33.3 01:19.4
25 124 25/U14 FFS2648791 2004 FORTINA ADAM MB SC CONTAMINE 12:33.7 01:19.8
26 107 26/U14 FFS2686672 2005 BROCHANT LUCAS MB SC GD BORNAN 12:38.7 01:24.8
27 120 27/U14 FFS2686695 2005 PERRILLAT BOTTONET JUDICA MB SC GD BORNAN 12:39.6 01:25.7
28 109 28/U14 FFS2668129 2004 BAUD CESAR MB LES GETS S.C 12:40.2 01:26.3
29 116 29/U14 FFS2667744 2005 BIZZOCCHI ESTEBAN MB SC D'AGY 12:40.8 01:26.9
30 117 30/U14 FFS2686939 2005 GRENARD MAX MB SCNP ROCHOIS 12:41.9 01:28.0
31 111 31/U14 FFS2660349 2004 DELOCHE TRISTAN MB SC GD BORNAN 12:44.3 01:30.4
32 84 32/U14 FFS2681321 2004 BETRIX ALEXIS MB CHABLAIS NOR 12:48.6 01:34.7
33 122 33/U14 FFS2671565 2005 COLOMBAN ALEXIS MB SCNP ROCHOIS 12:48.7 01:34.8
34 119 34/U14 FFS2681277 2004 PETILLEON TAO MB PRAZ LYS-SOM 12:51.6 01:37.7
35 114 35/U14 FFS2686242 2005 VIGUIER QUENTIN MB CS LA CLUSAZ 12:53.2 01:39.3
36 101 36/U14 FFS2684607 2004 ADAM NINO MB CS CHAMONIX 12:55.7 01:41.8
37 105 37/U14 FFS2686793 2005 MARIE ADELIN MB SC D'AGY 12:56.3 01:42.4
38 91 38/U14 FFS2681169 2004 JOSSERAND ANTOINE MB CS LA CLUSAZ 13:06.4 01:52.5
39 110 39/U14 FFS2663262 2004 LANVERS MATTEO MB VILLARD/BOEG 13:07.2 01:53.3
40 63 40/U14 FFS2668666 2004 DOUKARI ALEXIS MB SALLANCHES 13:11.7 01:57.8
41 97 41/U14 FFS2666324 2005 FAVRE FELIX KILLIAN MB SC GD BORNAN 13:13.6 01:59.7
42 89 42/U14 FFS2686795 2005 DELERCE THIBAULT MB SC D'AGY 13:14.4 02:00.5
43 103 43/U14 FFS2686539 2005 LACROIX MATTHIAS MB DRAGONS ANNY 13:15.3 02:01.4
44 88 44/U14 FFS2683536 2004 JACQUEMARD SWAN MB CS ARGENTIER 13:19.6 02:05.7
45 83 45/U14 FFS2680344 2005 DELERCE GASPARD MB LES GETS S.C 13:22.3 02:08.4
46 92 46/U14 FFS2686538 2005 JOMIER LOIS MB DRAGONS ANNY 13:22.9 02:09.0
47 94 47/U14 FFS2674370 2004 PINEL THIBAULT MB SALLANCHES 13:25.4 02:11.5
48 86 48/U14 FFS2687455 2005 FOUCAULT LECERF MAE MB SCNP ROCHOIS 13:29.6 02:15.7
49 98 49/U14 FFS2681002 2004 GONIN LEANDRE MB SC GD BORNAN 13:30.2 02:16.3
50 70 50/U14 FFS2686905 2005 MIR EMARATI MILO MB CS CHAMONIX 13:31.0 02:17.1
51 99 51/U14 FFS2663071 2004 BEGUEX LOUIS MB VILLARD/BOEG 13:36.2 02:22.3
52 95 52/U14 FFS2690844 2005 HAEBERLI ARTHUR MB CS LA CLUSAZ 13:37.6 02:23.7
53 106 53/U14 FFS2687034 2005 FIVEL DEMORET HUGO MB SC CONTAMINE 13:42.8 02:28.9
54 75 54/U14 FFS2666956 2004 BLAIZE REMI MB VILLARD/BOEG 13:43.1 02:29.2
55 90 55/U14 FFS2686543 2005 ROMERI NATHAN MB DRAGONS ANNY 13:44.8 02:30.9
56 74 56/U14 FFS2691698 2004 GEORGES THIBAULT MB SALLANCHES 13:44.9 02:31.0
57 87 57/U14 FFS2669366 2004 ROBERT ELOUAN MB SALLANCHES 13:49.2 02:35.3
58 85 58/U14 FFS2687035 2005 CORNU MATHIEU MB CS CHAMONIX 13:51.0 02:37.1
59 93 59/U14 FFS2686542 2005 PEYRET TILIEN MB DRAGONS ANNY 13:51.2 02:37.3
60 69 60/U14 FFS2682466 2004 THEVENOD JULES MB VILLARD/BOEG 13:51.6 02:37.7
61 79 61/U14 FFS2681171 2005 LUZET HUGO MB CS LA CLUSAZ 13:55.1 02:41.2
62 115 62/U14 FFS2680962 2004 PERRILLAT COLLOMB MATHEO MB SC GD BORNAN 13:56.1 02:42.2
63 76 63/U14 FFS2687102 2005 SYLVESTRE BARON PAUL MB SCNP ROCHOIS 13:57.1 02:43.2
64 96 64/U14 FFS2658419 2004 MAGRO FAUSTO MB CS MEGEVE 13:58.1 02:44.2
65 102 65/U14 FFS2686260 2005 BOSSUT AUGUSTIN MB PRAZ LYS-SOM 14:03.1 02:49.2
66 82 66/U14 FFS2686259 2005 DUCREY BRICE MB PRAZ LYS-SOM 14:03.3 02:49.4
67 72 67/U14 FFS2681813 2004 ANGRAND LOUIS MB VILLARD/BOEG 14:11.3 02:57.4
68 81 68/U14 FFS2686535 2005 FAILLENET JORIS MB DRAGONS ANNY 14:13.0 02:59.1
69 78 69/U14 FFS2686262 2005 LESSERTISSEUX VALENTIN MB PRAZ LYS-SOM 14:15.3 03:01.4
70 68 70/U14 FFS2686801 2005 GARBY KEVIN MB SC D'AGY 14:22.1 03:08.2
71 60 71/U14 FFS2682026 2004 FOURREAUX EVANN MB VILLARD/BOEG 14:23.7 03:09.8
72 80 72/U14 FFS2687103 2005 MOREAU SIMEON MB SCNP ROCHOIS 14:30.6 03:16.7
73 100 73/U14 FFS2686940 2005 LEVET PROSPER MB SCNP ROCHOIS 14:34.0 03:20.1
74 67 74/U14 FFS2663405 2004 JOCHUM ADRIEN MB LES GETS S.C 14:35.0 03:21.1
75 73 75/U14 FFS2681304 2005 PERSONNAZ LOAN MB DRAGONS ANNY 14:50.5 03:36.6
76 77 76/U14 FFS2688043 2005 MAGNIEZ OSCAR MB DRAGONS ANNY 15:08.2 03:54.3
77 66 77/U14 FFS2681424 2005 BOUVEROT TINO MB SC CONTAMINE 16:26.5 05:12.6
78 64 78/U14 FFS2676738 2005 CHETAIL JULES MB CS MEGEVE 16:41.6 05:27.7
Non partants
62 FFS2686531 2005 BALDUCCI UGO MB DRAGONS ANNY
65 FFS2686914 2005 LESCOUFF RONAN MB CS CHAMONIX
71 FFS2690481 2005 THABUIS BASILE MB VILLARD/BOEG